User: anonymous
Location: Unspecified
(0.0000°N, 0.0000°E)
Time: 03:47:46
(UTC+00:00)
Language:

Transit 2A - Orbit

View from above orbital plane
View from above orbital plane
View from above satellite
View from above satellite

Ground track
Ground track

The orbit data is extracted from the following two-line orbital elements,

1 00045U 60007A   14261.14838204  .00000369  00000-0  12128-3 0  2310
2 00045 066.6951 151.7370 0252469 042.0846 106.9901 14.33058870821815
Epoch (UTC): 18 September 2014 03:33:40
Eccentricity: 0.0252469
inclination: 66.6951°
perigee height: 601 km
apogee height: 962 km
right ascension of ascending node: 151.7370°
argument of perigee: 42.0846°
revolutions per day: 14.33058870
mean anomaly at epoch: 106.9901°
orbit number at epoch: 82181

The dashed part of the orbit path shows where the satellite is in the earth's shadow,  

DLR